Weather History for Block Island, RI

Change the Weather History Date:

Friday, February 1, 2013

  Actual Average Record
Temperature  
Mean Temperature 28 °F -  
Max Temperature 33 °F 35 °F 51 °F (2002)
Min Temperature 24 °F 24 °F 3 °F (1961)
Degree Days  
Heating Degree Days 36    
Moisture  
Dew Point 10 °F    
Average Humidity 43    
Maximum Humidity 55    
Minimum Humidity 34    
Precipitation  
Precipitation 0.00 in - - ()
Sea Level Pressure  
Sea Level Pressure 29.85 in    
Wind  
Wind Speed 19 mph (WNW)    
Max Wind Speed 28 mph    
Max Gust Speed 39 mph    
Visibility 10 miles    
Events      
Averages and records for this station are not official NWS values.
T = Trace of Precipitation, MM = Missing Value Source: NWS Daily Summary

Daily Weather History Graph

Daily Weather History Graph

Search for Another Location

Airport:

Trip Planner

Search our weather history database for the weather conditions in past years. The results will help you decide how hot, cold, wet, or windy it might be!

Date:

Astronomy

Feb. 01, 2013 Rise Set
Actual Time 6:57 AM EST 5:03 PM EST
Civil Twilight 6:27 AM EST 5:32 PM EST
Nautical Twilight 5:54 AM EST 6:05 PM EST
Astronomical Twilight 5:22 AM EST 6:37 PM EST
Moon 11:11 PM EST (2/1) 9:24 AM EST (2/1)
Length of Visible Light 11h 04m
Length of Day
10h 06m
Waning Gibbous, 70% of the Moon is Illuminated
Feb 1
Waning Gibbous
Feb 3
Last Quarter
Feb 10
New
Feb 17
First Quarter
Feb 25
Full

Hourly Weather History & Observations

Time (EST) Temp. Windchill Dew Point Humidity Pressure Visibility Wind Dir Wind Speed Gust Speed Precip Events Conditions
12:15 AM 33.8 °F 21.9 °F 17.6 °F 52% 29.66 in 10.0 mi West 21.9 mph 36.8 mph N/A   Mostly Cloudy
12:35 AM 33.8 °F 20.8 °F 15.8 °F 48% 29.67 in 10.0 mi West 26.5 mph 35.7 mph N/A   Scattered Clouds
1:15 AM 32.0 °F 18.6 °F 15.8 °F 51% 29.69 in 10.0 mi West 25.3 mph 39.1 mph N/A   Scattered Clouds
1:55 AM 32.0 °F 19.2 °F 12.2 °F 44% 29.70 in 10.0 mi West 23.0 mph 36.8 mph N/A   Scattered Clouds
2:15 AM 30.2 °F 16.5 °F 12.2 °F 47% 29.71 in 10.0 mi West 24.2 mph 35.7 mph N/A   Mostly Cloudy
2:35 AM 30.2 °F 16.5 °F 12.2 °F 47% 29.71 in 10.0 mi West 24.2 mph 34.5 mph N/A   Scattered Clouds
3:15 AM 30.2 °F 16.5 °F 12.2 °F 47% 29.73 in 10.0 mi West 24.2 mph 38.0 mph N/A   Mostly Cloudy
3:35 AM 30.2 °F 16.5 °F 12.2 °F 47% 29.74 in 10.0 mi West 24.2 mph 39.1 mph N/A   Mostly Cloudy
3:55 AM 30.2 °F 15.7 °F 10.4 °F 44% 29.74 in 10.0 mi West 27.6 mph 38.0 mph N/A   Mostly Cloudy
4:15 AM 30.2 °F 16.2 °F 10.4 °F 44% 29.74 in 10.0 mi West 25.3 mph 38.0 mph N/A   Mostly Cloudy
4:35 AM 30.2 °F 16.8 °F 12.2 °F 47% 29.75 in 10.0 mi West 23.0 mph 39.1 mph N/A   Scattered Clouds
4:55 AM 30.2 °F 17.1 °F 12.2 °F 47% 29.74 in 10.0 mi West 21.9 mph 39.1 mph N/A   Mostly Cloudy
5:15 AM 30.2 °F 17.1 °F 10.4 °F 44% 29.75 in 10.0 mi West 21.9 mph 29.9 mph N/A   Mostly Cloudy
5:35 AM 30.2 °F 17.8 °F 12.2 °F 47% 29.75 in 10.0 mi West 19.6 mph 29.9 mph N/A   Scattered Clouds
5:55 AM 30.2 °F 17.1 °F 12.2 °F 47% 29.75 in 10.0 mi West 21.9 mph 29.9 mph N/A   Mostly Cloudy
6:15 AM 30.2 °F 16.5 °F 12.2 °F 47% 29.76 in 10.0 mi WSW 24.2 mph 31.1 mph N/A   Overcast
6:35 AM 30.2 °F 18.5 °F 12.2 °F 47% 29.77 in 10.0 mi WSW 17.3 mph 29.9 mph N/A   Overcast
7:15 AM 30.2 °F 16.2 °F 12.2 °F 47% 29.79 in 10.0 mi WSW 25.3 mph 36.8 mph N/A   Mostly Cloudy
7:35 AM 30.2 °F 18.5 °F 12.2 °F 47% 29.80 in 10.0 mi West 17.3 mph 33.4 mph N/A   Overcast
7:55 AM 32.0 °F 18.9 °F 12.2 °F 44% 29.81 in 10.0 mi West 24.2 mph 33.4 mph N/A   Mostly Cloudy
8:15 AM 32.0 °F 20.5 °F 12.2 °F 44% 29.81 in 10.0 mi West 18.4 mph 33.4 mph N/A   Mostly Cloudy
8:35 AM 32.0 °F 19.5 °F 14.0 °F 48% 29.82 in 10.0 mi West 21.9 mph 29.9 mph N/A   Mostly Cloudy
9:15 AM 30.2 °F 19.3 °F 15.8 °F 55% 29.81 in 10.0 mi West 15.0 mph 24.2 mph N/A   Overcast
9:35 AM 30.2 °F 18.9 °F 15.8 °F 55% 29.81 in 10.0 mi West 16.1 mph 26.5 mph N/A   Scattered Clouds
9:55 AM 30.2 °F 19.3 °F 14.0 °F 51% 29.81 in 10.0 mi West 15.0 mph 25.3 mph N/A   Scattered Clouds
10:15 AM 30.2 °F 19.8 °F 12.2 °F 47% 29.82 in 10.0 mi West 13.8 mph 20.7 mph N/A   Partly Cloudy
10:35 AM 32.0 °F 22.5 °F 12.2 °F 44% 29.82 in 10.0 mi West 12.7 mph 19.6 mph N/A   Clear
10:55 AM 32.0 °F 23.0 °F 10.4 °F 41% 29.82 in 10.0 mi West 11.5 mph 17.3 mph N/A   Mostly Cloudy
11:15 AM 32.0 °F 22.1 °F 12.2 °F 44% 29.80 in 10.0 mi West 13.8 mph 20.7 mph N/A   Mostly Cloudy
11:35 AM 32.0 °F 25.6 °F 10.4 °F 41% 29.79 in 10.0 mi WNW 6.9 mph 16.1 mph N/A   Scattered Clouds
12:15 PM 32.0 °F 23.6 °F 10.4 °F 41% 29.78 in 10.0 mi WNW 10.4 mph 16.1 mph N/A   Mostly Cloudy
12:35 PM 30.2 °F 21.9 °F 10.4 °F 44% 29.77 in 10.0 mi NW 9.2 mph - N/A   Overcast
12:55 PM 30.2 °F 21.3 °F 10.4 °F 44% 29.76 in 10.0 mi NW 10.4 mph - N/A   Overcast
1:15 PM 32.0 °F 23.6 °F 8.6 °F 38% 29.76 in 10.0 mi NNW 10.4 mph 19.6 mph N/A   Overcast
1:35 PM 32.0 °F 25.6 °F 10.4 °F 41% 29.78 in 10.0 mi NW 6.9 mph - N/A   Mostly Cloudy
1:55 PM 32.0 °F 24.2 °F 10.4 °F 41% 29.79 in 10.0 mi NNW 9.2 mph 16.1 mph N/A   Overcast
2:15 PM 32.0 °F 24.2 °F 10.4 °F 41% 29.79 in 10.0 mi WNW 9.2 mph 17.3 mph N/A   Overcast
2:35 PM 32.0 °F 24.8 °F 10.4 °F 41% 29.80 in 10.0 mi NW 8.1 mph 16.1 mph N/A   Overcast
2:55 PM 30.2 °F 21.9 °F 8.6 °F 40% 29.80 in 10.0 mi WNW 9.2 mph 17.3 mph N/A   Overcast
3:15 PM 30.2 °F 20.8 °F 8.6 °F 40% 29.81 in 10.0 mi NW 11.5 mph 20.7 mph N/A   Overcast
3:35 PM 30.2 °F 21.3 °F 8.6 °F 40% 29.83 in 10.0 mi NW 10.4 mph 20.7 mph N/A   Overcast
4:15 PM 30.2 °F 20.2 °F 6.8 °F 37% 29.85 in 10.0 mi NW 12.7 mph 20.7 mph N/A   Overcast
4:35 PM 30.2 °F 19.3 °F 6.8 °F 37% 29.87 in 10.0 mi WNW 15.0 mph 24.2 mph N/A   Mostly Cloudy
4:55 PM 30.2 °F 18.9 °F 6.8 °F 37% 29.88 in 10.0 mi NW 16.1 mph 27.6 mph N/A   Mostly Cloudy
5:15 PM 28.4 °F 18.0 °F 8.6 °F 43% 29.90 in 10.0 mi NW 12.7 mph 23.0 mph N/A   Mostly Cloudy
5:35 PM 28.4 °F 15.8 °F 8.6 °F 43% 29.92 in 10.0 mi NW 18.4 mph 29.9 mph N/A   Mostly Cloudy
6:15 PM 28.4 °F 16.2 °F 8.6 °F 43% 29.95 in 10.0 mi NW 17.3 mph 25.3 mph N/A   Clear
6:55 PM 28.4 °F 15.4 °F 6.8 °F 40% 29.99 in 10.0 mi WNW 19.6 mph 27.6 mph N/A   Clear
7:15 PM 28.4 °F 16.2 °F 3.2 °F 34% 30.00 in 10.0 mi WNW 17.3 mph 29.9 mph N/A   Clear
7:35 PM 26.6 °F 13.4 °F 5.0 °F 40% 30.01 in 10.0 mi NW 18.4 mph 27.6 mph N/A   Clear
7:55 PM 26.6 °F 14.3 °F 6.8 °F 43% 30.03 in 10.0 mi NW 16.1 mph 26.5 mph N/A   Clear
8:15 PM 26.6 °F 12.4 °F 5.0 °F 40% 30.04 in 10.0 mi NW 21.9 mph 33.4 mph N/A   Clear
8:35 PM 26.6 °F 13.4 °F 3.2 °F 37% 30.04 in 10.0 mi NW 18.4 mph 29.9 mph N/A   Clear
8:55 PM 26.6 °F 13.1 °F 3.2 °F 37% 30.06 in 10.0 mi NW 19.6 mph 39.1 mph N/A   Clear
9:35 PM 24.8 °F 12.9 °F 3.2 °F 40% 30.08 in 10.0 mi NW 13.8 mph 25.3 mph N/A   Clear
9:55 PM 24.8 °F 13.4 °F 3.2 °F 40% 30.09 in 10.0 mi NW 12.7 mph 21.9 mph N/A   Clear
10:15 PM 24.8 °F 12.9 °F 3.2 °F 40% 30.10 in 10.0 mi WNW 13.8 mph 23.0 mph N/A   Clear
10:35 PM 24.8 °F 12.4 °F 3.2 °F 40% 30.10 in 10.0 mi WNW 15.0 mph 23.0 mph N/A   Clear
10:55 PM 24.8 °F 13.4 °F 5.0 °F 43% 30.11 in 10.0 mi WNW 12.7 mph 21.9 mph N/A   Clear
11:15 PM 24.8 °F 11.9 °F 3.2 °F 40% 30.12 in 10.0 mi WNW 16.1 mph 25.3 mph N/A   Partly Cloudy
11:35 PM 24.8 °F 10.3 °F 5.0 °F 43% 30.12 in 10.0 mi WNW 20.7 mph 27.6 mph N/A   Partly Cloudy
11:55 PM 24.8 °F 11.5 °F 3.2 °F 40% 30.13 in 10.0 mi WNW 17.3 mph 31.1 mph N/A   Partly Cloudy